SEASAT 1

Last updated on Fri Sep 19 2025 00:02:14 GMT+0000 (Coordinated Universal Time)

1 10967U 78064A 25261.10624327 .00000219 00000+0 99997-4 0 9997 2 10967 108.0097 123.4318 0002797 284.5547 75.5288 14.45925663481566
UTC large
Height (km)
Speed (km/s)
/
Latitude / Longitude
Inclination (degrees)
Orbital Period (minutes)
Azimuth
Elevation
Range (km)
Doppler Factor

Next 0 passes for location: London (51.5072 / 0.1276)

Sorry there are no passes over London.